Location: Dumpton Point
(51.3500°N, 1.4433°E)
Time: 12:15:40
(UTC+00:00)

Envisat - Pass Details

Date: 14 December 2021
Orbit: 764 x 766 km, 98.2° (Epoch: 23 January)

Event Time Altitude Azimuth Distance (km) Brightness Sun altitude
Rises 05:57:09 0° 9° (N) 3,247 6.2 -16.7°
Reaches altitude 10° 05:59:35 10° 2° (N) 2,316 5.3 -16.3°
Maximum altitude 06:04:16 39° 295° (WNW) 1,149 3.4 -15.6°
Drops below altitude 10° 06:08:57 10° 228° (SW) 2,300 5.2 -14.9°
Sets 06:11:22 0° 221° (SW) 3,222 6.0 -14.6°
